Location: Unspecified
(0.0000°N, 0.0000°E)
Time: 04:52:24
(UTC+01:00)

Atlas Centaur 2 - Visible Passes

Search period start: 01 November 2014 00:00
Search period end: 11 November 2014 00:00
Orbit: 460 x 1327 km, 30.4° (Epoch: 31 October)

Date Brightness Start Highest point End Pass type
(mag) Time Alt. Az. Time Alt. Az. Time Alt. Az.
05 Nov 4.4 21:16:34 10° SSW 21:17:34 14° SSW 21:17:34 14° SSW visible
06 Nov 4.5 19:29:27 10° SSE 19:29:48 10° SSE 19:30:10 10° SSE visible
06 Nov 4.2 21:15:00 10° SW 21:16:50 19° SSW 21:16:50 19° SSW visible
07 Nov 4.2 19:25:45 10° S 19:29:08 15° SSE 19:32:10 10° SE visible
07 Nov 3.9 21:13:36 10° SW 21:16:07 25° SW 21:16:07 25° SW visible
08 Nov 4.0 19:23:37 10° SSW 19:28:24 21° SSE 19:32:29 10° ESE visible
08 Nov 3.7 21:12:23 10° WSW 21:15:26 30° SW 21:15:26 30° SW visible
09 Nov 3.6 19:21:49 10° SSW 19:27:37 28° SSE 19:31:57 12° E visible
09 Nov 3.6 21:11:18 10° WSW 21:14:46 33° WSW 21:14:46 33° WSW visible
10 Nov 3.2 19:20:11 10° SW 19:26:45 39° SSE 19:31:17 14° E visible
10 Nov 3.6 21:10:22 10° WSW 21:14:06 32° W 21:14:06 32° W visible
